Volver al catálogo

FREGAT DEB

ActivoUNKNOWN
NORAD 45831·DEBRIS·🇷🇺 Russia

Lanzado Jul 18, 2011 desde Baikonur Cosmodrome

Loading…

Próximos Pases (próximas 24 horas)

TLE

ActualizadoSource: Space-Track

Época: Sep 14, 2026, 01:37 UTC

1 45831U 11037BR  26257.06773635  .00000484  00000-0  29146-3 0  9993
2 45831  51.4429 161.0708 1629432 240.6123 102.2413 11.56314012264184

Sigue FREGAT DEB en tiempo real con AllMySat

Download on the App Store